Погода в Новотроицке

Россия / Оренбургская область     51°11′47″N   58°18′06″E
темп.,
°C
ветер,
м/с
пор.,
м/с
влажн.,
%
обл.,
%
осадки,
мм/ч
давл.,
гПа
погр.,
м
26 июля, пн
пн2623:00+17ссв34590 0.0 101772
02:00+16с22680 0.0 101833
05:00+14ссв33770 0.0 101958
08:00+17св33640 0.0 1019297
11:00+21ссв32470 0.0 10191090
14:00+24ссз33345 0.0 10182351
17:00+25с43315 0.0 10172474
20:00+22с22390 0.0 101799
27 июля, вт
вт2723:00+17ссз22470 0.0 101841
02:00+15с22540 0.0 101817
05:00+13ссв22610 0.0 101822
08:00+17с22550 0.0 1019232
11:00+21ссв33440 0.0 10171265
14:00+24с323316 0.0 10162529
17:00+25с43299 0.0 10152554
20:00+22в11365 0.0 101479
28 июля, ср
ср2823:00+18зсз224022 0.0 101412
02:00+16с014823 0.0 101413
05:00+15зсз22505 0.0 101316
08:00+19зсз35435 0.0 1013227
11:00+23зсз56395 0.0 10121664
14:00+24зсз5636100 0.0 10112596
17:00+24св654095 0.0 10111147
20:00+22с35381 0.0 1012125
29 июля, чт
чт2923:00+16св35550 0.0 101483
02:00+14ссв22620 0.0 101430
05:00+13ссв22630 0.0 101518
08:00+17ссз11460 0.0 1016182
11:00+21з12330 0.0 10151512
14:00+24з23260 0.0 10142272
17:00+26зсз3425100 0.0 10132605
20:00+23юз343495 0.0 101396
30 июля, пт
пт3023:00+20юз3333100 0.0 101331
02:00+19юз3336100 0.0 101337
05:00+18юз3438100 0.0 101352
08:00+19ююв2246100 0.0 101331
11:00+22ююз61134100 0.1 1012533
14:00+28юз91226100 0.0 10101965
17:00+28зюз71037100 0.0 10081253
20:00+23з31059100 0.7 1009311